When you browse on this site, cookies collect data to enhance your experience and personalize the content and advertising you see.
Visit our Privacy Policy to learn more. By continuing to use the site, you agree to this use of cookies and data.
  • In Hungary
  • List of Countries
  • For 7 days
  • Water Temperature
  • Weather Map
  • News
  • Weather Widgets
  • user-avatar
    Login

    Hourly Weather Ganja

    Today, 23 September, Monday

    Time Temperature Precipitation Wind Pressure Humidity
    00:00 +14°C° 0 mm 1 mps 728 mmHg 60%
    01:00 +14°C° 0 mm 1 mps 728 mmHg 61%
    02:00 +13°C° 0 mm 1 mps 728 mmHg 61%
    03:00 +12°C° 0 mm 0 mps 728 mmHg 61%
    04:00 +13°C° 0 mm 1 mps 728 mmHg 60%
    05:00 +12°C° 0 mm 1 mps 727 mmHg 59%
    06:00 +12°C° 0 mm 1 mps 727 mmHg 57%
    07:00 +14°C° 0 mm 1 mps 727 mmHg 53%
    08:00 +16°C° 0 mm 2 mps 727 mmHg 49%
    09:00 +17°C° 0 mm 2 mps 727 mmHg 42%
    10:00 +18°C° 0 mm 2 mps 727 mmHg 40%
    11:00 +19°C° 0 mm 2 mps 726 mmHg 38%
    12:00 +20°C° 0 mm 2 mps 726 mmHg 36%
    13:00 +21°C° 0 mm 2 mps 725 mmHg 35%
    14:00 +21°C° 0 mm 2 mps 725 mmHg 34%
    15:00 +23°C° 0 mm 2 mps 725 mmHg 33%
    16:00 +22°C° 0 mm 1 mps 725 mmHg 36%
    17:00 +21°C° 0 mm 1 mps 725 mmHg 39%
    18:00 +20°C° 0 mm 1 mps 725 mmHg 41%
    19:00 +19°C° 0 mm 1 mps 725 mmHg 43%
    20:00 +19°C° 0 mm 1 mps 726 mmHg 44%
    21:00 +18°C° 0 mm 1 mps 726 mmHg 45%
    22:00 +18°C° 0 mm 1 mps 726 mmHg 49%
    23:00 +16°C° 0 mm 1 mps 726 mmHg 52%

    Tomorrow, 24 September, Tuesday

    Time Temperature Precipitation Wind Pressure Humidity
    00:00 +16°C° 0 mm 1 mps 726 mmHg 55%
    01:00 +15°C° 0 mm 1 mps 726 mmHg 59%
    02:00 +15°C° 0 mm 1 mps 726 mmHg 62%
    03:00 +15°C° 0 mm 1 mps 726 mmHg 66%
    04:00 +14°C° 0 mm 1 mps 726 mmHg 68%
    05:00 +14°C° 0 mm 1 mps 726 mmHg 69%
    06:00 +13°C° 0 mm 0 mps 726 mmHg 71%
    07:00 +15°C° 0 mm 1 mps 726 mmHg 64%
    08:00 +18°C° 0 mm 1 mps 726 mmHg 58%
    09:00 +20°C° 0 mm 1 mps 727 mmHg 52%
    10:00 +20°C° 0 mm 2 mps 726 mmHg 50%
    11:00 +21°C° 0 mm 2 mps 726 mmHg 48%
    12:00 +23°C° 0 mm 2 mps 725 mmHg 46%
    13:00 +23°C° 0 mm 2 mps 725 mmHg 46%
    14:00 +24°C° 0 mm 2 mps 725 mmHg 46%
    15:00 +24°C° 0 mm 2 mps 724 mmHg 46%
    16:00 +23°C° 0 mm 2 mps 724 mmHg 51%
    17:00 +21°C° 0 mm 2 mps 724 mmHg 56%
    18:00 +21°C° 0 mm 1 mps 724 mmHg 60%
    19:00 +21°C° 0 mm 1 mps 724 mmHg 62%
    20:00 +20°C° 0 mm 1 mps 725 mmHg 65%
    21:00 +20°C° 0 mm 1 mps 725 mmHg 67%
    22:00 +19°C° 0 mm 1 mps 725 mmHg 69%
    23:00 +19°C° 0 mm 1 mps 724 mmHg 72%

    Day after tomorrow, 25 September, Wednesday

    Time Temperature Precipitation Wind Pressure Humidity
    00:00 +18°C° 0 mm 1 mps 724 mmHg 74%
    01:00 +18°C° 0 mm 1 mps 724 mmHg 76%
    02:00 +18°C° 0 mm 1 mps 724 mmHg 79%
    03:00 +16°C° 0 mm 1 mps 724 mmHg 81%
    04:00 +16°C° 0 mm 1 mps 724 mmHg 80%
    05:00 +16°C° 0 mm 1 mps 724 mmHg 80%
    06:00 +15°C° 0 mm 1 mps 724 mmHg 79%
    07:00 +18°C° 0 mm 1 mps 724 mmHg 73%
    08:00 +19°C° 0 mm 2 mps 724 mmHg 67%
    09:00 +20°C° 0 mm 2 mps 724 mmHg 61%
    10:00 +23°C° 0 mm 2 mps 724 mmHg 57%
    11:00 +24°C° 0 mm 2 mps 724 mmHg 52%
    12:00 +25°C° 0 mm 2 mps 724 mmHg 48%
    13:00 +26°C° 0 mm 2 mps 723 mmHg 46%
    14:00 +27°C° 0 mm 2 mps 723 mmHg 43%
    15:00 +27°C° 0 mm 2 mps 723 mmHg 41%
    16:00 +26°C° 0 mm 2 mps 723 mmHg 44%
    17:00 +25°C° 0 mm 2 mps 723 mmHg 46%
    18:00 +24°C° 0 mm 2 mps 723 mmHg 49%
    19:00 +24°C° 0 mm 3 mps 724 mmHg 51%
    20:00 +22°C° 0 mm 4 mps 724 mmHg 54%
    21:00 +21°C° 0 mm 4 mps 725 mmHg 56%
    22:00 +20°C° 0 mm 4 mps 725 mmHg 62%
    23:00 +19°C° 0 mm 4 mps 725 mmHg 69%

    26 September, Thursday

    Time Temperature Precipitation Wind Pressure Humidity
    00:00 +19°C° 0 mm 4 mps 725 mmHg 75%
    01:00 +18°C° 0 mm 4 mps 725 mmHg 76%
    02:00 +18°C° 0 mm 3 mps 725 mmHg 77%
    03:00 +18°C° 0 mm 2 mps 725 mmHg 78%
    04:00 +18°C° 0 mm 2 mps 725 mmHg 79%
    05:00 +18°C° 0 mm 1 mps 725 mmHg 81%
    06:00 +18°C° 0 mm 1 mps 725 mmHg 83%
    07:00 +19°C° 0 mm 1 mps 725 mmHg 80%
    08:00 +20°C° 0 mm 1 mps 725 mmHg 77%
    09:00 +20°C° 0 mm 2 mps 725 mmHg 74%
    10:00 +21°C° 0 mm 2 mps 725 mmHg 70%
    11:00 +23°C° 0 mm 2 mps 724 mmHg 67%
    12:00 +24°C° 0 mm 2 mps 724 mmHg 64%
    13:00 +24°C° 0 mm 2 mps 724 mmHg 60%
    14:00 +25°C° 0 mm 2 mps 723 mmHg 56%
    15:00 +26°C° 0 mm 2 mps 723 mmHg 53%
    16:00 +25°C° 0 mm 2 mps 723 mmHg 56%
    17:00 +24°C° 0 mm 1 mps 723 mmHg 58%
    18:00 +23°C° 0 mm 1 mps 723 mmHg 61%
    19:00 +22°C° 0 mm 1 mps 723 mmHg 63%
    20:00 +22°C° 0 mm 1 mps 724 mmHg 65%
    21:00 +21°C° 0 mm 1 mps 724 mmHg 67%
    22:00 +21°C° 0 mm 1 mps 724 mmHg 69%
    23:00 +20°C° 0 mm 2 mps 724 mmHg 71%

    27 September, Friday

    Time Temperature Precipitation Wind Pressure Humidity
    00:00 +19°C° 0 mm 2 mps 724 mmHg 72%
    01:00 +19°C° 0 mm 2 mps 724 mmHg 75%
    02:00 +18°C° 0 mm 2 mps 724 mmHg 77%
    03:00 +18°C° 0 mm 2 mps 724 mmHg 79%
    04:00 +18°C° 0 mm 1 mps 724 mmHg 80%
    05:00 +18°C° 0 mm 1 mps 724 mmHg 81%
    06:00 +18°C° 0 mm 1 mps 724 mmHg 82%
    07:00 +19°C° 0 mm 1 mps 724 mmHg 76%
    08:00 +21°C° 0 mm 1 mps 724 mmHg 71%
    09:00 +22°C° 0 mm 1 mps 724 mmHg 66%
    10:00 +24°C° 0 mm 2 mps 724 mmHg 61%
    11:00 +25°C° 0 mm 2 mps 724 mmHg 57%
    12:00 +26°C° 0 mm 2 mps 724 mmHg 53%
    13:00 +27°C° 0 mm 2 mps 723 mmHg 50%
    14:00 +27°C° 0 mm 2 mps 723 mmHg 47%
    15:00 +28°C° 0 mm 1 mps 722 mmHg 44%
    16:00 +27°C° 0 mm 1 mps 722 mmHg 46%
    17:00 +26°C° 0 mm 1 mps 722 mmHg 48%
    18:00 +25°C° 0 mm 1 mps 722 mmHg 51%
    19:00 +25°C° 0 mm 1 mps 723 mmHg 52%
    20:00 +24°C° 0 mm 1 mps 723 mmHg 53%
    21:00 +24°C° 0 mm 2 mps 723 mmHg 54%
    22:00 +22°C° 0 mm 3 mps 723 mmHg 57%
    23:00 +21°C° 0 mm 3 mps 723 mmHg 60%

    28 September, Saturday

    Time Temperature Precipitation Wind Pressure Humidity
    00:00 +20°C° 0 mm 4 mps 723 mmHg 64%
    01:00 +20°C° 0 mm 3 mps 723 mmHg 65%
    02:00 +19°C° 0 mm 2 mps 723 mmHg 66%
    03:00 +19°C° 0 mm 2 mps 722 mmHg 66%
    04:00 +19°C° 0 mm 1 mps 722 mmHg 69%
    05:00 +19°C° 0 mm 1 mps 722 mmHg 71%
    06:00 +16°C° 0 mm 0 mps 722 mmHg 73%
    07:00 +19°C° 0 mm 1 mps 722 mmHg 69%
    08:00 +21°C° 0 mm 1 mps 721 mmHg 65%
    09:00 +21°C° 0 mm 2 mps 721 mmHg 61%
    10:00 +22°C° 0.1 mm 4 mps 722 mmHg 61%
    11:00 +23°C° 0.1 mm 6 mps 722 mmHg 61%
    12:00 +23°C° 0.1 mm 7 mps 722 mmHg 61%
    13:00 +23°C° 0.1 mm 7 mps 722 mmHg 57%
    14:00 +24°C° 0.1 mm 6 mps 722 mmHg 54%
    15:00 +24°C° 0.1 mm 6 mps 721 mmHg 50%
    16:00 +23°C° 0 mm 5 mps 722 mmHg 52%
    17:00 +23°C° 0 mm 4 mps 722 mmHg 54%
    18:00 +22°C° 0 mm 4 mps 723 mmHg 56%
    19:00 +21°C° 0 mm 5 mps 723 mmHg 57%
    20:00 +21°C° 0 mm 5 mps 724 mmHg 58%
    21:00 +20°C° 0 mm 6 mps 724 mmHg 59%
    22:00 +20°C° 0 mm 5 mps 725 mmHg 61%
    23:00 +19°C° 0 mm 4 mps 725 mmHg 62%
    Show more